FENGYUN 1C DEB, 31922

Orbit data source: Space-Track

FENGYUN 1C DEB, 31922 is space debris in SSO originally from a launch on Mon, 10 May 1999 UTC launched from the Taiyaun Space Center, China (TSC). Fengyun 1C debris stems from the Chinese weather satellite Fengyun-1C, which was intentionally destroyed by a Chinese anti-satellite missile in 2007. This event dramatically increased the amount of space debris, with thousands of trackable fragments posing hazards to satellites and human spaceflight. The Fengyun 1C debris cloud has become a focal point in discussions about space sustainability and the need for international regulations to prevent the creation of new debris.

Loading next visibility...
Identifier
31922, 1999-025CLZ
Orbit
SSO
Country
Flag of CNCN / PRC
Related business
Manufacturer
Unknown
Mission
Spacecraft
Bus & Motor
Unknown
Mass
Unknown
Launch date (UTC)
1999-05-10 (27 years ago)
Launch vehicle
Unknown
Launch site
Taiyaun Space Center, China (TSC)
Object type
Payload
Rocket body
Debris
Shape & HBR
Unknown shape, 0.1 m
Radar Cross Section
Small (<0.1 m²)

Expand to show TLE details & history
Last TLE update: 14 hours ago

TLE from 14 hours ago
0 FENGYUN 1C DEB
1 31922U 99025CLZ 26256.50683265  .00001431  00000-0  11250-2 0  9998
2 31922  98.8261 237.4879 0159926 359.3117 127.6473 13.87620531968261
Epoch: 2026-09-13T12:09Z
TLE epoch observation values (Epoch: 2026-09-13T12:09:50.340Z)
Latitude
50.85696°
Longitude
-106.53194°
Altitude
1,017.711 km
Speed
7.311 km/s
True Right ascension
04h 33m 42s
True Declination
50° 41' 40"
Sunlit
Object was in daylight at epoch
Visualization orbit readout
Latitude
Unknown
Longitude
Unknown
Altitude
Unknown
Speed
Unknown
Apparent Right ascension
Unknown
Apparent Declination
Unknown
Sunlit
N/A
Visualization observer readout
Local Sidereal Time
18:45:09
Azimuth
Unknown
Elevation
Unknown
Doppler factor
Unknown
Orbital elements
Apogee altitude
1,051.131 km
Perigee altitude
817.245 km
Semi-major axis
7,312.325 km
Eccentricity
0.01599
Inclination
98.8261°
RAAN
237.4879°
Arg. of periapsis
359.3117°
True anomaly
129.08068°
Mean anomaly
127.6473°
Eccentric anomaly
128.36575°
Mean motion
3.47104 °/min
Orbital period
103.72 mins
BSTAR
0.001125
Loading maneuver chart data...
Computing Atmospheric mass density...
Loading historical data...
Loading historical data...
Loading historical data...
Loading historical data...
Loading historical data...
Loading historical data...
Loading historical data...

Documentation

Showing up to 5 results
|